Location: Glinica
(50.3048°N, 20.0798°E)
Time: 21:35:50
(UTC+00:00)

Daily predictions for brighter satellites

Satellite Brightness Start Highest point End
(mag) Time Altitude Azimuth Time Altitude Azimuth Time Altitude Azimuth
Okean 1-7 Rocket 4.5 15:09:11 10° N 15:12:57 27° ENE 15:16:41 10° SE
Cosmos 1455 Rocket 3.7 15:09:27 10° SSW 15:13:43 57° WNW 15:18:03 10° N
USA 215 3.6 15:07:36 10° ENE 15:13:57 55° NNW 15:20:19 10° W
Cosmos 1570 Rocket 4.3 15:09:49 10° NNW 15:15:11 77° WSW 15:20:28 10° SSE
Cosmos 1634 Rocket 4.0 15:09:01 10° S 15:15:12 80° E 15:21:23 10° NNE
Cosmos 1602 Rocket 4.0 15:11:12 10° N 15:15:21 39° ENE 15:19:24 10° SE
CZ-2D R/B 4.2 15:14:03 10° ESE 15:16:15 18° ENE 15:18:28 10° NNE
Cosmos 2227 Rocket 2.6 15:11:53 10° NNW 15:17:11 39° NE 15:22:28 10° ESE
Cosmos 1461 3.7 15:17:15 10° S 15:20:43 31° ESE 15:24:12 10° ENE
Cosmos 2369 Rocket 3.8 15:16:20 10° W 15:21:01 26° NW 15:25:47 10° NNE
Cosmos 1486 Rocket 4.2 15:18:00 10° S 15:23:03 52° ESE 15:28:09 10° NNE
Cosmos 773 Rocket 4.1 15:17:52 10° NNW 15:23:06 88° WSW 15:28:21 10° SSE
BREEZE-M DEB (TANK) 2.4 15:21:19 10° W 15:23:51 80° S 15:30:17 10° E
YAOGAN 1 4.3 15:22:50 10° E 15:24:39 13° NE 15:26:28 10° NNE
Cosmos 2360 4.4 15:19:43 10° S 15:25:17 56° ESE 15:30:53 10° NE
Cosmos 2279 Rocket 4.0 15:20:46 10° S 15:26:55 70° E 15:33:08 10° NNE
Cosmos 1743 2.3 15:26:56 10° N 15:30:10 58° ENE 15:33:21 10° SSE
Cosmos 2151 3.1 15:26:21 10° N 15:30:25 50° ENE 15:34:29 10° SSE
Cosmos 1697 Rocket 3.5 15:27:38 10° SSE 15:32:31 32° ESE 15:37:25 10° NE
Cosmos 1867 3.6 15:27:44 10° NW 15:33:12 69° NE 15:38:38 10° SE
NOSS 2-2 (D) 2.8 15:33:02 10° SW 15:36:18 73° NW 15:39:04 12° NE
IGS 5A 3.3 15:34:19 10° SSE 15:38:16 90° E 15:42:17 10° NNW
MOS 1 Rocket 4.0 15:34:21 10° SE 15:38:56 38° ENE 15:43:45 10° N
Cosmos 1607 4.1 15:33:07 10° NW 15:39:21 80° SW 15:45:39 10° SSE
IRIDIUM 106 4.4 15:34:26 10° N 15:39:35 54° E 15:44:41 10° SSE
Cosmos 1900 4.3 15:38:02 10° NW 15:43:07 81° NE 15:48:06 10° SE
BREEZE-M DEB (TANK) 3.1 15:40:43 10° W 15:43:29 82° S 15:51:17 10° E
BREEZE M DEB (TANK) 4.3 15:28:06 10° WNW 15:43:31 64° SSW 15:47:36 10° SE
SAR-Lupe-4 3.9 15:40:51 10° SE 15:44:13 41° ENE 15:47:36 10° N
ARIANE 5 R/B 2.6 15:40:08 10° SE 15:45:04 56° ENE 15:50:06 10° N
Cosmos 1825 Rocket 3.9 15:44:25 10° N 15:48:34 42° ENE 15:52:40 10° SE
Cosmos 2084 Rocket 3.6 15:44:27 10° NW 15:48:40 75° SW 15:52:51 10° SE
Cosmos 2180 Rocket 4.4 15:43:01 10° S 15:49:05 72° E 15:55:15 10° NNE
NOSS 3-2 (A) 3.4 15:44:02 10° SW 15:49:09 69° NW 15:55:05 12° NE
Cosmos 1782 2.7 15:45:46 10° SSW 15:49:22 75° W 15:52:59 10° N
NOSS 3-2 (C) 3.3 15:45:43 10° SSW 15:50:40 61° SE 15:55:51 14° NE
Cosmos 1656 3.8 15:45:19 10° SSW 15:50:57 78° WNW 15:56:42 10° NNE
Cosmos 1758 Rocket 4.1 15:47:35 10° NNW 15:51:51 60° W 15:56:03 10° S
Cosmos 2098 Rocket 3.2 15:50:27 10° S 15:54:41 87° W 15:59:44 10° N
SAR-Lupe-1 4.2 15:51:32 10° SE 15:55:01 48° ENE 15:58:32 10° N
Gbstr 26 Del rocket 3.8 15:51:30 10° SSW 15:55:13 33° SSE 15:57:35 17° E
NOSS 2-2 (E) 3.1 15:53:20 10° SW 15:56:32 57° NW 15:58:41 17° NNE
UNK 3.7 15:52:01 10° NNE 15:56:36 65° ESE 16:01:07 10° S
Meteor 1-20 Rocket 4.1 15:53:12 10° NNW 15:58:43 87° ENE 16:04:11 10° SSE
CZ-2D R/B 4.3 15:57:11 10° ESE 16:00:43 27° ENE 16:04:14 10° N
CZ-4C R/B 3.2 15:54:20 10° NW 16:01:13 78° SW 16:09:48 10° SSE
Cosmos 2266 Rocket 3.9 15:55:29 10° N 16:01:41 83° E 16:07:44 10° S
SPOT 1/Viking Rocket 3.9 15:57:04 10° SE 16:01:54 40° ENE 16:06:45 10° N
Cosmos 2082 4.4 15:59:11 10° NNW 16:04:18 32° NE 16:08:44 13° ESE
SMAP 3.2 16:01:12 10° SSE 16:05:51 80° WSW 16:10:33 10° NNW
Cosmos 1076 Rocket 3.8 16:02:54 10° N 16:07:01 42° ENE 16:11:07 10° SE
PSLV R/B 4.4 16:06:53 20° E 16:08:09 24° ENE 16:11:25 10° N
IRS-P3 4.1 16:03:29 10° SSE 16:08:43 64° ENE 16:13:59 10° N
Cosmos 2297 Rocket 3.3 16:04:28 10° NW 16:09:54 49° WSW 16:15:19 10° S
Landsat 7 3.7 16:06:01 10° SSE 16:10:41 90° NNE 16:15:21 10° NNW
COSMO-SKYMED 1 3.9 16:12:53 19° ESE 16:12:53 19° ESE 16:15:19 10° SE
Cosmos 2058 Rocket 4.1 16:09:18 10° SE 16:12:56 25° E 16:13:33 24° ENE
SJ-6F 4.3 16:10:11 10° SSE 16:14:07 64° ENE 16:18:07 10° N
[s.n.66845] 3.8 16:12:03 10° N 16:12:44 15° N 16:12:44 15° N
Meteor 1-28 Rocket 4.0 16:11:05 10° N 16:14:19 43° WNW 16:17:29 10° SW
[s.n.66847] 3.8 16:12:29 10° N 16:13:11 15° N 16:13:11 15° N
[s.n.66846] 3.8 16:12:54 10° N 16:13:36 15° N 16:13:36 15° N
[s.n.66843] 3.8 16:13:26 10° N 16:14:08 15° N 16:14:08 15° N
[s.n.66844] 3.8 16:13:52 10° N 16:14:35 15° N 16:14:35 15° N
[s.n.66842] 3.8 16:14:24 10° N 16:15:06 15° N 16:15:06 15° N
[s.n.66841] 3.8 16:14:51 10° N 16:15:33 15° N 16:15:33 15° N
[s.n.66840] 3.8 16:15:21 10° N 16:16:03 15° N 16:16:03 15° N
[s.n.66838] 3.8 16:15:50 10° N 16:16:31 15° N 16:16:31 15° N
[s.n.66839] 3.8 16:16:19 10° N 16:17:01 15° N 16:17:01 15° N
Cosmos 1538 Rocket 4.1 16:13:31 10° NNW 16:18:43 55° ENE 16:23:55 10° SE
[s.n.66837] 3.8 16:16:46 10° N 16:17:28 15° N 16:17:28 15° N
[s.n.66836] 3.8 16:17:16 10° N 16:17:57 15° N 16:17:57 15° N
[s.n.66835] 3.8 16:17:46 10° N 16:18:27 15° N 16:18:27 15° N
[s.n.66834] 3.8 16:18:15 10° N 16:18:56 15° N 16:18:56 15° N
[s.n.66833] 3.8 16:18:41 10° N 16:19:22 15° N 16:19:22 15° N
[s.n.66832] 3.8 16:19:13 10° N 16:19:54 15° N 16:19:54 15° N
[s.n.66831] 3.8 16:19:38 10° N 16:20:19 15° N 16:20:19 15° N
[s.n.66830] 3.8 16:20:04 10° N 16:20:45 15° N 16:20:45 15° N
[s.n.66828] 3.8 16:20:30 10° N 16:21:11 15° N 16:21:11 15° N
[s.n.66829] 3.8 16:21:02 10° N 16:21:42 15° N 16:21:42 15° N
[s.n.66827] 3.8 16:21:33 10° NNW 16:22:13 15° N 16:22:13 15° N
Cosmos 1606 Rocket 3.5 16:19:36 10° S 16:24:00 79° E 16:28:28 10° NNE
[s.n.66826] 3.8 16:22:03 10° NNW 16:22:43 15° N 16:22:43 15° N
[s.n.66825] 3.9 16:22:29 10° NNW 16:23:08 15° N 16:23:08 15° N
[s.n.66824] 3.9 16:23:00 10° NNW 16:23:40 15° N 16:23:40 15° N
[s.n.66823] 3.9 16:23:31 10° NNW 16:24:10 15° N 16:24:10 15° N
[s.n.66822] 3.9 16:24:00 10° NNW 16:24:39 15° N 16:24:39 15° N
[s.n.66821] 3.9 16:24:28 10° NNW 16:25:07 15° N 16:25:07 15° N
Cosmos 1503 Rocket 4.2 16:23:45 10° SSW 16:28:58 72° WNW 16:33:39 13° NNE
Cosmos 2219 3.3 16:24:28 10° NNW 16:30:06 53° NE 16:35:43 10° SE
CENTAUR R/B 3.7 16:26:05 10° W 16:31:52 36° NNW 16:36:56 17° NE
SL-16 R/B 3.5 16:26:29 10° N 16:32:23 46° WNW 16:38:15 10° SW
GEOS 3 Rocket 3.7 16:28:50 21° NE 16:32:31 84° NW 16:37:54 10° SW
AQUARIUS 4.3 16:29:29 10° S 16:33:52 72° WSW 16:38:17 10° NNW
Cosmos 1980 Rocket 2.5 16:30:28 10° S 16:35:48 44° ESE 16:37:57 31° ENE
Resurs 1-3 3.7 16:31:55 10° SE 16:36:03 48° ENE 16:40:13 10° N
NOSS 2-3 (C) 3.5 16:33:28 10° SSW 16:36:44 41° SE 16:36:50 41° ESE
Lacrosse 5 rocket 2.2 16:33:55 10° WNW 16:37:11 28° N 16:37:41 27° NNE
Cosmos 1844 Rocket 3.7 16:32:35 10° NNW 16:37:15 26° NE 16:37:19 26° NE
Meteor 2-20 4.4 16:31:29 10° S 16:37:32 63° E 16:43:37 10° NNE
Cosmos 1354 Rocket 4.0 16:33:17 10° SSW 16:38:34 83° WNW 16:42:34 18° NNE
Meteor 1-5 Rocket 4.1 16:34:03 10° NNW 16:39:24 86° W 16:44:53 10° S
BREEZE M DEB (TANK) 2.9 16:39:42 10° WSW 16:41:17 34° SSW 16:41:17 34° SSW
Lacrosse 4 Rocket 3.9 16:40:30 10° NW 16:41:48 11° NNW 16:43:05 10° N
Spot 4 Rocket 3.9 16:39:35 10° SSE 16:44:37 66° ENE 16:49:43 10° N
Cosmos 2263 Rocket 2.1 16:39:22 10° NNW 16:45:05 89° ENE 16:50:48 10° SSE
Cosmos 1244 Rocket 4.5 16:40:29 10° N 16:46:43 59° ENE 16:52:50 10° SSE
Cosmos 1726 Rocket 3.7 16:43:18 10° SSW 16:47:57 82° W 16:51:54 14° N
Cosmos 2369 4.4 16:43:40 10° SSE 16:48:43 33° ESE 16:48:44 33° ESE
Cosmos 1898 Rocket 3.8 16:44:52 10° S 16:49:39 41° ESE 16:49:57 41° E
USA 238 DEB 3.6 16:45:24 10° SSW 16:51:20 56° ESE 16:53:47 36° ENE
USA 238 3.6 16:45:31 10° SSW 16:51:27 55° ESE 16:53:53 36° ENE
Cosmos 44 Rocket 4.3 16:49:11 10° NNW 16:53:32 31° NNE 16:53:32 31° NNE
USA 215 3.6 16:53:50 34° ENE 16:56:26 52° N 17:02:46 10° WNW
Cosmos 1461 3.8 16:53:42 10° WSW 16:57:23 39° NW 16:58:30 31° N
OceanSat 1 rocket 4.5 16:52:43 10° SSE 16:57:24 64° ENE 17:02:04 10° N
Meteor 2-20 Rocket 4.3 16:53:08 10° S 16:59:16 65° E 17:04:05 16° NNE
YAOGAN 1 2.4 16:55:33 10° SSE 16:59:48 84° ENE 17:04:06 10° NNW
SKYMED 2 3.4 16:58:49 40° NNE 17:00:21 85° ESE 17:04:42 10° SSW
Cosmos 923 Rocket 4.0 16:55:29 10° NNW 17:00:37 55° ENE 17:01:12 52° E
Cosmos-2242 3.0 16:56:27 10° S 17:00:12 58° SE 17:00:12 58° SE
Cosmos 2227 Rocket 3.3 16:55:59 10° NW 17:01:18 44° WSW 17:06:37 10° S
SL-08 R/B 4.4 16:55:14 10° N 17:01:32 64° ENE 17:07:49 10° SSE
Cosmos 372 Rocket 3.9 16:57:20 10° S 17:02:25 63° ESE 17:03:16 54° ENE
BREEZE-M DEB (TANK) 4.2 17:00:17 10° SW 17:02:20 21° S 17:02:20 21° S
NOSS 2-3 (E) 3.0 17:00:04 10° SW 17:03:38 85° W 17:03:38 85° W
NOSS 2-3 (D) 3.1 17:00:42 10° SW 17:04:14 82° SW 17:04:14 82° SW
Cosmos 1386 Rocket 4.5 17:00:50 10° N 17:06:46 52° ENE 17:12:46 10° SSE
Cosmos 1937 Rocket 4.1 17:03:39 10° S 17:07:22 38° SE 17:07:22 38° SE
Meteor 2-10 4.3 17:09:06 10° NNW 17:14:27 71° W 17:19:57 10° S
Cosmos 1697 Rocket 3.3 17:10:47 10° SW 17:16:14 52° NW 17:19:15 26° N
BREEZE-M DEB (TANK) 4.4 16:49:34 10° W 17:16:16 79° SSW 17:19:11 39° ESE
Aureole 1 Rocket 3.3 17:13:53 10° SSW 17:18:25 89° WNW 17:19:37 55° NNE
Resurs 01 Rocket 4.1 17:29:46 11° N 17:29:46 11° N 17:29:55 10° N
NOAA 6 4.1 17:26:23 10° S 17:31:29 75° WSW 17:36:36 10° NNW
COSMOS 2455 4.1 17:26:44 10° S 17:29:38 26° SSE 17:29:38 26° SSE
Cosmos 1680 Rocket 3.9 17:27:52 10° NNW 17:31:45 49° N 17:31:45 49° N
Meteor 2-2 Rocket 4.3 17:34:26 10° SSW 17:40:04 73° WNW 17:41:51 45° N
Gbstr 26 Del rocket 4.3 17:37:23 10° WSW 17:39:37 33° W 17:39:37 33° W
NOSS 3-2 (C) 4.3 17:36:46 10° W 17:41:51 39° NNW 17:43:16 35° N
COSMO-SKYMED 1 4.0 17:49:13 33° WSW 17:49:13 33° WSW 17:51:46 10° SW
Cosmos 2082 4.2 17:43:07 10° NW 17:48:44 58° WSW 17:50:41 38° S
Cosmos 2058 Rocket 4.3 17:46:21 10° SW 17:50:35 41° WNW 17:50:45 40° WNW
Cosmos 1980 Rocket 3.3 18:14:35 10° WSW 18:19:44 39° NW 18:19:44 39° NW
Cosmos 1844 Rocket 4.1 18:16:05 10° NNW 18:18:59 32° NW 18:18:59 32° NW
CENTAUR R/B 4.1 18:18:21 10° NW 18:24:02 31° N 18:24:02 31° N
USA 215 3.9 18:41:10 49° NW 18:41:10 49° NW 18:45:45 10° WNW
